When you browse on this site, cookies collect data to enhance your experience and personalize the content and advertising you see.
Visit our Privacy Policy to learn more. By continuing to use the site, you agree to this use of cookies and data.
  • In Hungary
  • List of Countries
  • For 7 days
  • Water Temperature
  • Satellite Maps
  • Weather Map
  • News
  • Weather Widgets
  • user-avatar
    Login

    Hourly Weather Outreau

    Today, 26 June, Wednesday

    Time Temperature Precipitation Wind Pressure Humidity
    00:00 +16°C° 0 mm 3 mps 762 mmHg 91%
    01:00 +15°C° 0 mm 4 mps 762 mmHg 93%
    02:00 +15°C° 0 mm 5 mps 762 mmHg 95%
    03:00 +15°C° 0 mm 6 mps 762 mmHg 96%
    04:00 +15°C° 0 mm 6 mps 763 mmHg 95%
    05:00 +15°C° 0 mm 7 mps 763 mmHg 94%
    06:00 +16°C° 0 mm 8 mps 764 mmHg 92%
    07:00 +17°C° 0 mm 8 mps 764 mmHg 89%
    08:00 +18°C° 0 mm 8 mps 764 mmHg 87%
    09:00 +20°C° 0 mm 8 mps 764 mmHg 84%
    10:00 +20°C° 0 mm 8 mps 764 mmHg 82%
    11:00 +21°C° 0 mm 8 mps 764 mmHg 80%
    12:00 +22°C° 0 mm 8 mps 765 mmHg 78%
    13:00 +22°C° 0 mm 9 mps 764 mmHg 79%
    14:00 +21°C° 0 mm 10 mps 764 mmHg 79%
    15:00 +21°C° 0 mm 10 mps 764 mmHg 79%
    16:00 +19°C° 0 mm 10 mps 764 mmHg 81%
    17:00 +18°C° 0 mm 10 mps 764 mmHg 82%
    18:00 +17°C° 0 mm 10 mps 764 mmHg 84%
    19:00 +17°C° 0 mm 10 mps 764 mmHg 85%
    20:00 +16°C° 0 mm 10 mps 765 mmHg 86%
    21:00 +14°C° 0 mm 10 mps 765 mmHg 87%
    22:00 +14°C° 0 mm 10 mps 765 mmHg 87%
    23:00 +15°C° 0 mm 9 mps 765 mmHg 88%

    Tomorrow, 27 June, Thursday

    Time Temperature Precipitation Wind Pressure Humidity
    00:00 +15°C° 0 mm 9 mps 766 mmHg 88%
    01:00 +15°C° 0 mm 9 mps 766 mmHg 88%
    02:00 +15°C° 0 mm 8 mps 765 mmHg 88%
    03:00 +13°C° 0 mm 8 mps 765 mmHg 87%
    04:00 +15°C° 0 mm 8 mps 765 mmHg 85%
    05:00 +15°C° 0 mm 9 mps 765 mmHg 84%
    06:00 +15°C° 0 mm 9 mps 765 mmHg 82%
    07:00 +16°C° 0 mm 9 mps 766 mmHg 76%
    08:00 +18°C° 0 mm 9 mps 766 mmHg 71%
    09:00 +19°C° 0 mm 9 mps 766 mmHg 66%
    10:00 +21°C° 0 mm 9 mps 766 mmHg 63%
    11:00 +22°C° 0 mm 9 mps 766 mmHg 61%
    12:00 +22°C° 0 mm 9 mps 766 mmHg 59%
    13:00 +22°C° 0 mm 9 mps 766 mmHg 62%
    14:00 +22°C° 0 mm 9 mps 766 mmHg 65%
    15:00 +22°C° 0 mm 9 mps 766 mmHg 68%
    16:00 +21°C° 0 mm 9 mps 765 mmHg 70%
    17:00 +19°C° 0 mm 9 mps 765 mmHg 73%
    18:00 +17°C° 0 mm 9 mps 765 mmHg 76%
    19:00 +16°C° 0 mm 9 mps 765 mmHg 79%
    20:00 +15°C° 0 mm 9 mps 765 mmHg 81%
    21:00 +13°C° 0 mm 9 mps 765 mmHg 84%
    22:00 +13°C° 0 mm 8 mps 765 mmHg 86%
    23:00 +12°C° 0 mm 8 mps 765 mmHg 88%

    Day after tomorrow, 28 June, Friday

    Time Temperature Precipitation Wind Pressure Humidity
    00:00 +12°C° 0 mm 7 mps 765 mmHg 90%
    01:00 +12°C° 0 mm 7 mps 765 mmHg 89%
    02:00 +11°C° 0 mm 7 mps 765 mmHg 89%
    03:00 +11°C° 0 mm 7 mps 764 mmHg 88%
    04:00 +12°C° 0 mm 7 mps 764 mmHg 88%
    05:00 +12°C° 0 mm 7 mps 764 mmHg 87%
    06:00 +13°C° 0 mm 6 mps 764 mmHg 86%
    07:00 +15°C° 0 mm 6 mps 764 mmHg 80%
    08:00 +17°C° 0 mm 6 mps 764 mmHg 75%
    09:00 +19°C° 0 mm 6 mps 764 mmHg 69%
    10:00 +21°C° 0 mm 6 mps 763 mmHg 66%
    11:00 +22°C° 0 mm 7 mps 763 mmHg 63%
    12:00 +23°C° 0 mm 7 mps 763 mmHg 60%
    13:00 +24°C° 0 mm 7 mps 763 mmHg 60%
    14:00 +24°C° 0 mm 7 mps 762 mmHg 60%
    15:00 +26°C° 0 mm 7 mps 762 mmHg 59%
    16:00 +24°C° 0 mm 7 mps 762 mmHg 63%
    17:00 +23°C° 0 mm 7 mps 761 mmHg 67%
    18:00 +22°C° 0 mm 6 mps 761 mmHg 70%
    19:00 +21°C° 0 mm 6 mps 761 mmHg 75%
    20:00 +19°C° 0 mm 6 mps 761 mmHg 80%
    21:00 +16°C° 0 mm 5 mps 761 mmHg 85%
    22:00 +16°C° 0 mm 5 mps 761 mmHg 82%
    23:00 +16°C° 0 mm 5 mps 760 mmHg 80%

    29 June, Saturday

    Time Temperature Precipitation Wind Pressure Humidity
    00:00 +15°C° 0 mm 5 mps 760 mmHg 78%
    01:00 +15°C° 0 mm 5 mps 760 mmHg 79%
    02:00 +15°C° 0 mm 5 mps 760 mmHg 80%
    03:00 +14°C° 0 mm 5 mps 759 mmHg 82%
    04:00 +15°C° 0 mm 5 mps 759 mmHg 80%
    05:00 +16°C° 0 mm 5 mps 759 mmHg 79%
    06:00 +18°C° 0 mm 4 mps 759 mmHg 78%
    07:00 +20°C° 0 mm 4 mps 758 mmHg 73%
    08:00 +22°C° 0 mm 3 mps 758 mmHg 68%
    09:00 +25°C° 0 mm 3 mps 758 mmHg 63%
    10:00 +26°C° 0 mm 3 mps 758 mmHg 60%
    11:00 +27°C° 0 mm 3 mps 757 mmHg 57%
    12:00 +29°C° 0 mm 3 mps 757 mmHg 54%
    13:00 +29°C° 0 mm 3 mps 756 mmHg 55%
    14:00 +29°C° 0 mm 3 mps 756 mmHg 55%
    15:00 +30°C° 0 mm 3 mps 756 mmHg 55%
    16:00 +29°C° 0 mm 3 mps 755 mmHg 61%
    17:00 +29°C° 0 mm 3 mps 755 mmHg 66%
    18:00 +28°C° 0 mm 3 mps 755 mmHg 72%
    19:00 +26°C° 0 mm 4 mps 755 mmHg 78%
    20:00 +25°C° 0 mm 4 mps 755 mmHg 83%
    21:00 +22°C° 0 mm 5 mps 755 mmHg 89%
    22:00 +21°C° 0 mm 5 mps 755 mmHg 92%
    23:00 +19°C° 0 mm 5 mps 755 mmHg 95%

    30 June, Sunday

    Time Temperature Precipitation Wind Pressure Humidity
    00:00 +17°C° 0 mm 5 mps 756 mmHg 98%
    01:00 +17°C° 0 mm 5 mps 756 mmHg 95%
    02:00 +16°C° 0 mm 5 mps 756 mmHg 92%
    03:00 +17°C° 0 mm 4 mps 756 mmHg 89%
    04:00 +17°C° 0 mm 4 mps 757 mmHg 85%
    05:00 +16°C° 0 mm 5 mps 757 mmHg 82%
    06:00 +16°C° 0 mm 5 mps 757 mmHg 78%
    07:00 +17°C° 0 mm 5 mps 758 mmHg 76%
    08:00 +19°C° 0 mm 5 mps 758 mmHg 73%
    09:00 +19°C° 0 mm 5 mps 759 mmHg 71%
    10:00 +20°C° 0 mm 5 mps 759 mmHg 71%
    11:00 +20°C° 0 mm 6 mps 759 mmHg 70%
    12:00 +21°C° 0 mm 6 mps 759 mmHg 69%
    13:00 +20°C° 0 mm 7 mps 759 mmHg 70%
    14:00 +20°C° 0 mm 7 mps 759 mmHg 71%
    15:00 +20°C° 0 mm 7 mps 759 mmHg 71%
    16:00 +18°C° 0 mm 7 mps 759 mmHg 74%
    17:00 +18°C° 0 mm 7 mps 759 mmHg 77%
    18:00 +17°C° 0 mm 6 mps 759 mmHg 79%
    19:00 +16°C° 0 mm 6 mps 759 mmHg 85%
    20:00 +15°C° 0 mm 5 mps 759 mmHg 90%
    21:00 +13°C° 0 mm 5 mps 759 mmHg 96%
    22:00 +13°C° 0 mm 5 mps 759 mmHg 96%
    23:00 +13°C° 0 mm 4 mps 759 mmHg 97%

    1 July, Monday

    Time Temperature Precipitation Wind Pressure Humidity
    00:00 +13°C° 0 mm 4 mps 759 mmHg 97%
    01:00 +13°C° 0 mm 4 mps 759 mmHg 97%
    02:00 +13°C° 0 mm 4 mps 759 mmHg 97%
    03:00 +14°C° 0 mm 4 mps 759 mmHg 98%
    04:00 +14°C° 0 mm 4 mps 759 mmHg 94%
    05:00 +14°C° 0 mm 4 mps 759 mmHg 90%
    06:00 +15°C° 0 mm 5 mps 759 mmHg 86%
    07:00 +17°C° 0 mm 4 mps 759 mmHg 82%
    08:00 +18°C° 0 mm 4 mps 759 mmHg 78%
    09:00 +19°C° 0 mm 4 mps 760 mmHg 73%
    10:00 +19°C° 0 mm 4 mps 760 mmHg 71%
    11:00 +19°C° 0 mm 5 mps 760 mmHg 68%
    12:00 +20°C° 0 mm 5 mps 760 mmHg 66%
    13:00 +20°C° 0 mm 6 mps 760 mmHg 66%
    14:00 +20°C° 0 mm 6 mps 760 mmHg 66%
    15:00 +20°C° 0 mm 7 mps 760 mmHg 66%
    16:00 +19°C° 0 mm 6 mps 760 mmHg 69%
    17:00 +17°C° 0 mm 5 mps 760 mmHg 71%
    18:00 +18°C° 0 mm 4 mps 760 mmHg 74%
    19:00 +15°C° 0 mm 4 mps 761 mmHg 77%
    20:00 +14°C° 0 mm 3 mps 761 mmHg 81%
    21:00 +12°C° 0 mm 3 mps 761 mmHg 85%
    22:00 +12°C° 0 mm 3 mps 762 mmHg 87%
    23:00 +12°C° 0 mm 3 mps 762 mmHg 89%
    Show more